Showing default

WILDFIRE 8, 57768

Orbit data source: Space-Track

WILDFIRE 8, 57768 is a payload satellite owned by SDA (US) in LEO that was launched on Sat, 02 Sep 2023 UTC via an FALCON 9 launch vehicle from the Air Force Western Test Range (AFWTR). Payload-class satellites include a variety of spacecraft equipped with specific instruments for various scientific and technological missions. These include communications satellites like Starlink; space stations such as the ISS; scientific satellites like the Hubble; Earth observation satellites from companies like Planet Labs, Umbra, and HawkEye 360; GPS; miniature CubeSats for education and research; and military/defense satellites.

Loading next visibility...
Identifier
57768, 2023-133M
Orbit
LEO
Country
Flag of USUS
Related business
Manufacturer
TYVAK/LMSSD
Mission
Operational Defense Communications
Bus & Motor
MAVERICKS, Unknown motor
Mass
~300 kg wet, ~300 kg dry
Launch date (UTC)
2023-09-02 (3 years ago)
Launch vehicle
FALCON 9
Launch site
Air Force Western Test Range (AFWTR)
Object type
Payload
Rocket body
Debris
Shape & HBR
Box + 2 Pan, 1.3 m
Radar Cross Section
0.713 m², Large (>1 m²)

Expand to show TLE details & history
Last TLE update: 2 days ago

TLE from 2 days ago
0 WILDFIRE 8
1 57768U 23133M   26170.99500165  .00000037  00000-0  22408-4 0  9996
2 57768  80.9950   4.2602 0006114  13.8374 346.2948 13.85422108141420
Epoch: 2026-06-19T23:52Z
TLE epoch observation values (Epoch: 2026-06-19T23:52:48.142Z)
Latitude
-0.0001°
Longitude
97.84361°
Altitude
943.225 km
Speed
7.382 km/s
True Right ascension
00h 17m 02s
True Declination
0° 00' 00"
Sunlit
Object was in daylight at epoch
Visualization orbit readout
Latitude
Unknown
Longitude
Unknown
Altitude
Unknown
Speed
Unknown
Apparent Right ascension
Unknown
Apparent Declination
Unknown
Sunlit
N/A
Visualization observer readout
Local Sidereal Time
21:34:16
Azimuth
Unknown
Elevation
Unknown
Doppler factor
Unknown
Orbital elements
Apogee altitude
946.413 km
Perigee altitude
937.462 km
Semi-major axis
7,320.074 km
Eccentricity
0.00061
Inclination
80.995°
RAAN
4.2602°
Arg. of periapsis
13.8374°
True anomaly
346.27819°
Mean anomaly
346.2948°
Eccentric anomaly
346.2865°
Mean motion
3.46553 °/min
Orbital period
103.88 mins
BSTAR
0.000022408
Loading maneuver chart data...
Computing Atmospheric mass density...
Loading historical data...
Loading historical data...
Loading historical data...
Loading historical data...
Loading historical data...
Loading historical data...
Loading historical data...

Documentation

Showing up to 5 results
|